Погода в Тамбее

Россия / Ямало-Ненецкий автономный округ     71°28′24″N   71°48′37″E
темп.,
°C
ветер,
м/с
пор.,
м/с
влажн.,
%
обл.,
%
осадки,
мм/ч
давл.,
гПа
погр.,
м
8 марта, пн
пн823:00−29ссв3499100 0.1 100964
02:00−29ссв34100100 0.1 100945
05:00−30ссв33100100 0.1 100930
08:00−30ссв33100100 0.1 100928
11:00−29ссв2298100 0.1 100979
14:00−28св1298100 0.1 100894
17:00−29ссв22100100 0.1 100720
20:00−29с22100100 0.1 100723
9 марта, вт
вт923:00−29с4699100 0.1 1006112
02:00−30с469799 0.1 1005140
05:00−32ссз459798 0.1 100483
08:00−33сз449866 0.0 100335
11:00−28зсз459779 0.0 1003181
14:00−24зсз469599 0.1 1003372
17:00−24с349799 0.1 1003156
20:00−27ссв3395100 0.1 100341
10 марта, ср
ср1023:00−28ссв2395100 0.1 100344
02:00−30ссв3392100 0.0 100338
05:00−33ссв229499 0.0 100419
08:00−35ссз12984 0.0 100519
11:00−32зсз22932 0.0 100519
14:00−31зюз349213 0.0 100544
17:00−30зюз469156 0.0 1003119
20:00−27зюз61193100 0.0 1001255
11 марта, чт
чт1123:00−25зюз81496100 0.2 999345
02:00−21з91595100 0.4 996552
05:00−18з91594100 0.9 994564
08:00−15з81394100 0.5 993498
11:00−14зсз91390100 0.8 992468
14:00−14зсз101592100 0.2 992540
17:00−15з101684100 0.4 991405
20:00−17зюз111886100 0.0 989403
12 марта, пт
пт1223:00−18зюз111990100 0.0 988474
02:00−17зюз101693100 0.4 986536
05:00−17зюз81393100 1.1 985458
08:00−16зюз61095100 0.5 985313
11:00−13юз3595100 0.8 984286
14:00−13всв2296100 0.2 98483
17:00−17св6897100 0.4 984152
20:00−19св7997100 0.4 984225